When you browse on this site, cookies collect data to enhance your experience and personalize the content and advertising you see.
Visit our Privacy Policy to learn more. By continuing to use the site, you agree to this use of cookies and data.
  • In Romania
  • List of Countries
  • For 7 days
  • Water Temperature
  • Satellite Maps
  • Weather Map
  • Weather Widgets
  • user-avatar
    Login

    Hourly Weather Mariniha

    Today, 17 February, Sunday

    Time Temperature Precipitation Wind Pressure Humidity
    00:00 -1°C° 0 mm 4 mps 736 mmHg 86%
    01:00 -1°C° 0 mm 5 mps 735 mmHg 85%
    02:00 -1°C° 0 mm 4 mps 734 mmHg 83%
    03:00 -1°C° 0 mm 5 mps 734 mmHg 84%
    04:00 -1°C° 0 mm 5 mps 733 mmHg 85%
    05:00 -2°C° 0 mm 6 mps 733 mmHg 86%
    06:00 -2°C° 0 mm 6 mps 733 mmHg 84%
    07:00 -2°C° 0 mm 6 mps 733 mmHg 82%
    08:00 -3°C° 0 mm 6 mps 733 mmHg 80%
    09:00 -3°C° 0.1 mm 6 mps 733 mmHg 78%
    10:00 -3°C° 0.1 mm 7 mps 733 mmHg 77%
    11:00 -3°C° 0.1 mm 7 mps 733 mmHg 76%
    12:00 -3°C° 0.1 mm 7 mps 733 mmHg 75%
    13:00 -3°C° 0.1 mm 7 mps 733 mmHg 74%
    14:00 -2°C° 0.1 mm 7 mps 733 mmHg 74%
    15:00 -4°C° 0.1 mm 8 mps 734 mmHg 75%
    16:00 -4°C° 0.1 mm 8 mps 735 mmHg 76%
    17:00 -5°C° 0.1 mm 8 mps 735 mmHg 77%
    18:00 -4°C° 0.1 mm 7 mps 736 mmHg 77%
    19:00 -4°C° 0.1 mm 7 mps 737 mmHg 76%
    20:00 -4°C° 0.1 mm 7 mps 738 mmHg 76%
    21:00 -6°C° 0.1 mm 7 mps 739 mmHg 76%
    22:00 -6°C° 0.1 mm 7 mps 740 mmHg 75%
    23:00 -7°C° 0.1 mm 7 mps 741 mmHg 74%

    Tomorrow, 18 February, Monday

    Time Temperature Precipitation Wind Pressure Humidity
    00:00 -8°C° 0 mm 7 mps 742 mmHg 75%
    01:00 -8°C° 0 mm 7 mps 743 mmHg 75%
    02:00 -9°C° 0 mm 7 mps 744 mmHg 76%
    03:00 -9°C° 0 mm 6 mps 745 mmHg 77%
    04:00 -10°C° 0 mm 6 mps 746 mmHg 77%
    05:00 -10°C° 0 mm 6 mps 747 mmHg 78%
    06:00 -11°C° 0 mm 6 mps 748 mmHg 79%
    07:00 -11°C° 0 mm 5 mps 749 mmHg 80%
    08:00 -12°C° 0 mm 5 mps 749 mmHg 81%
    09:00 -11°C° 0 mm 5 mps 750 mmHg 80%
    10:00 -10°C° 0 mm 4 mps 751 mmHg 79%
    11:00 -10°C° 0 mm 4 mps 751 mmHg 79%
    12:00 -9°C° 0 mm 4 mps 752 mmHg 79%
    13:00 -9°C° 0 mm 4 mps 752 mmHg 78%
    14:00 -8°C° 0 mm 3 mps 752 mmHg 78%
    15:00 -9°C° 0 mm 3 mps 753 mmHg 82%
    16:00 -9°C° 0 mm 2 mps 753 mmHg 86%
    17:00 -9°C° 0 mm 1 mps 753 mmHg 90%
    18:00 -9°C° 0 mm 1 mps 753 mmHg 91%
    19:00 -10°C° 0 mm 1 mps 753 mmHg 92%
    20:00 -10°C° 0 mm 1 mps 753 mmHg 93%
    21:00 -10°C° 0 mm 1 mps 753 mmHg 92%
    22:00 -10°C° 0 mm 1 mps 753 mmHg 90%
    23:00 -12°C° 0 mm 2 mps 753 mmHg 89%

    Day after tomorrow, 19 February, Tuesday

    Time Temperature Precipitation Wind Pressure Humidity
    00:00 -10°C° 0 mm 2 mps 752 mmHg 87%
    01:00 -12°C° 0 mm 3 mps 751 mmHg 85%
    02:00 -11°C° 0 mm 4 mps 751 mmHg 83%
    03:00 -10°C° 0 mm 4 mps 750 mmHg 80%
    04:00 -9°C° 0 mm 4 mps 749 mmHg 77%
    05:00 -8°C° 0 mm 5 mps 748 mmHg 74%
    06:00 -8°C° 0 mm 5 mps 747 mmHg 74%
    07:00 -8°C° 0 mm 5 mps 747 mmHg 74%
    08:00 -8°C° 0 mm 5 mps 746 mmHg 75%
    09:00 -6°C° 0 mm 5 mps 746 mmHg 75%
    10:00 -5°C° 0 mm 5 mps 745 mmHg 76%
    11:00 -2°C° 0 mm 4 mps 745 mmHg 76%
    12:00 -2°C° 0 mm 4 mps 744 mmHg 79%
    13:00 -2°C° 0 mm 4 mps 744 mmHg 81%
    14:00 -1°C° 0 mm 4 mps 743 mmHg 83%
    15:00 -1°C° 0 mm 3 mps 743 mmHg 85%
    16:00 -1°C° 0 mm 3 mps 743 mmHg 86%
    17:00 -1°C° 0 mm 3 mps 742 mmHg 87%
    18:00 -1°C° 0 mm 3 mps 741 mmHg 87%
    19:00 -3°C° 0 mm 4 mps 741 mmHg 86%
    20:00 -3°C° 0 mm 4 mps 740 mmHg 86%
    21:00 -3°C° 0 mm 4 mps 739 mmHg 85%
    22:00 -3°C° 0 mm 4 mps 739 mmHg 85%
    23:00 -2°C° 0 mm 5 mps 738 mmHg 85%

    20 February, Wednesday

    Time Temperature Precipitation Wind Pressure Humidity
    00:00 -2°C° 0 mm 5 mps 738 mmHg 85%
    01:00 -2°C° 0 mm 5 mps 737 mmHg 86%
    02:00 -1°C° 0 mm 5 mps 737 mmHg 87%
    03:00 -1°C° 0.4 mm 5 mps 736 mmHg 88%
    04:00 -1°C° 0.4 mm 4 mps 735 mmHg 89%
    05:00 -1°C° 0.4 mm 4 mps 735 mmHg 90%
    06:00 -1°C° 0.2 mm 4 mps 735 mmHg 91%
    07:00 -1°C° 0.2 mm 4 mps 734 mmHg 92%
    08:00 -1°C° 0.2 mm 4 mps 734 mmHg 93%
    09:00 -1°C° 0.1 mm 4 mps 734 mmHg 92%
    10:00 -1°C° 0.1 mm 4 mps 734 mmHg 91%
    11:00 0°C° 0.1 mm 4 mps 734 mmHg 90%
    12:00 0°C° 0.2 mm 4 mps 733 mmHg 90%
    13:00 0°C° 0.2 mm 4 mps 733 mmHg 90%
    14:00 0°C° 0.2 mm 4 mps 733 mmHg 90%
    15:00 0°C° 0.3 mm 4 mps 733 mmHg 91%
    16:00 +1°C° 0.3 mm 3 mps 732 mmHg 91%
    17:00 0°C° 0.3 mm 3 mps 732 mmHg 92%
    18:00 -1°C° 0.4 mm 3 mps 732 mmHg 88%
    19:00 -2°C° 0.4 mm 3 mps 733 mmHg 84%
    20:00 -4°C° 0.4 mm 3 mps 733 mmHg 80%
    21:00 -5°C° 0 mm 3 mps 733 mmHg 83%
    22:00 -6°C° 0 mm 3 mps 733 mmHg 87%
    23:00 -7°C° 0 mm 3 mps 732 mmHg 90%

    21 February, Thursday

    Time Temperature Precipitation Wind Pressure Humidity
    00:00 -6°C° 0 mm 3 mps 733 mmHg 90%
    01:00 -5°C° 0 mm 2 mps 733 mmHg 90%
    02:00 -4°C° 0 mm 2 mps 733 mmHg 89%
    03:00 -5°C° 0.2 mm 3 mps 733 mmHg 90%
    04:00 -5°C° 0.2 mm 3 mps 734 mmHg 91%
    05:00 -5°C° 0.2 mm 4 mps 734 mmHg 92%
    06:00 -7°C° 0.2 mm 5 mps 735 mmHg 89%
    07:00 -9°C° 0.2 mm 6 mps 736 mmHg 87%
    08:00 -11°C° 0.2 mm 7 mps 737 mmHg 84%
    09:00 -11°C° 0.1 mm 7 mps 738 mmHg 82%
    10:00 -11°C° 0.1 mm 7 mps 739 mmHg 80%
    11:00 -11°C° 0.1 mm 7 mps 741 mmHg 77%
    12:00 -11°C° 0.1 mm 7 mps 742 mmHg 77%
    13:00 -11°C° 0.1 mm 7 mps 743 mmHg 76%
    14:00 -11°C° 0.1 mm 6 mps 744 mmHg 75%
    15:00 -11°C° 0.1 mm 6 mps 745 mmHg 75%
    16:00 -12°C° 0.1 mm 6 mps 746 mmHg 76%
    17:00 -12°C° 0.1 mm 6 mps 747 mmHg 76%
    18:00 -12°C° 0 mm 6 mps 747 mmHg 77%
    19:00 -13°C° 0 mm 5 mps 748 mmHg 77%
    20:00 -13°C° 0 mm 5 mps 749 mmHg 78%
    21:00 -13°C° 0 mm 5 mps 749 mmHg 79%
    22:00 -13°C° 0 mm 5 mps 750 mmHg 80%
    23:00 -14°C° 0 mm 5 mps 750 mmHg 81%

    22 February, Friday

    Time Temperature Precipitation Wind Pressure Humidity
    00:00 -14°C° 0 mm 5 mps 751 mmHg 82%
    01:00 -15°C° 0 mm 5 mps 751 mmHg 83%
    02:00 -15°C° 0 mm 5 mps 752 mmHg 83%
    03:00 -15°C° 0 mm 5 mps 752 mmHg 83%
    04:00 -16°C° 0 mm 4 mps 753 mmHg 83%
    05:00 -16°C° 0 mm 4 mps 753 mmHg 82%
    06:00 -16°C° 0 mm 4 mps 754 mmHg 81%
    07:00 -16°C° 0 mm 4 mps 755 mmHg 81%
    08:00 -15°C° 0 mm 5 mps 755 mmHg 80%
    09:00 -14°C° 0 mm 5 mps 756 mmHg 76%
    10:00 -13°C° 0 mm 5 mps 756 mmHg 73%
    11:00 -12°C° 0 mm 5 mps 757 mmHg 69%
    12:00 -11°C° 0 mm 5 mps 757 mmHg 67%
    13:00 -10°C° 0 mm 5 mps 757 mmHg 66%
    14:00 -10°C° 0 mm 5 mps 757 mmHg 64%
    15:00 -11°C° 0 mm 5 mps 758 mmHg 68%
    16:00 -11°C° 0 mm 4 mps 758 mmHg 72%
    17:00 -11°C° 0 mm 4 mps 759 mmHg 76%
    18:00 -12°C° 0 mm 4 mps 759 mmHg 79%
    19:00 -14°C° 0 mm 4 mps 760 mmHg 81%
    20:00 -15°C° 0 mm 4 mps 760 mmHg 83%
    21:00 -15°C° 0 mm 4 mps 761 mmHg 86%
    22:00 -15°C° 0 mm 3 mps 761 mmHg 88%
    23:00 -16°C° 0 mm 3 mps 761 mmHg 90%
    Show more